Home   Weather   Lloydminster   Past weeks

Flag for Canada Past Weather in Lloydminster, Alberta, Canada — Yesterday and Last 2 Weeks

Now
34 °F

Overcast.


Feels Like: 30 °F
Forecast: 30 / 43 °F
Wind: 5 mph from Northeast

Location: Lloydminister

Current Time: Apr 27, 2017 at 10:35:57 pm

Latest Report: Apr 27, 2017 at 10:00 pm


Visibility: 15 mi

Pressure: 29.99 "Hg (27.66 "Hg at 648m altitude)

Humidity: 100%

Dew Point: 34 °F

Location of LloydminsterLocation

Past Weather in Lloydminster — Graph

°F

Lloydminster Temperature Yesterday

Maximum temperature yesterday: 36 °F (at 7:00 pm)
Minimum temperature yesterday: 28 °F (at 12:34 am)
Average temperature yesterday: 30 °F

High & Low Weather Summary for the Past Weeks

 TemperatureHumidityPressure
High52 °F (Apr 20, 4:00 pm)100% (Apr 12, 11:00 pm)30.45 "Hg (Apr 12, 11:00 pm)
Low12 °F (Apr 16, 6:47 am)48% (Apr 22, 6:00 pm)29.55 "Hg (Apr 14, 2:00 pm)
Average31 °F91%30.03 "Hg
* Reported Apr 12 9:00 pm — Apr 27 9:00 pm, Lloydminster, Weather by CustomWeather, © 2017

Note: Actual official high and low records may vary slightly from our data, if they occured in-between our weather recording intervals... More about our weather records

Advertising

Lloydminster Weather History for the Previous 24 Hours

Scroll right to see more
 ConditionsComfort  
Time TempWeatherWind HumidityBarometerVisibility
9:00 pm
Thu, Apr 27
34 °FOvercast.7 mph100%29.98 "Hg15 mi
8:24 pm34 °FOvercast.8 mph100%29.97 "Hg15 mi
8:00 pm34 °FLight snow. Overcast.7 mph100%29.96 "Hg15 mi
7:26 pm34 °FLight snow. Overcast.5 mph100%29.96 "Hg15 mi
7:00 pm34 °FOvercast.2 mph100%29.95 "Hg15 mi
6:00 pm34 °FLight snow. Low clouds.5 mph100%29.94 "Hg15 mi
5:34 pm34 °FLight snow. More clouds than sun.5 mph100%29.94 "Hg12 mi
5:00 pm34 °FLight snow. Mostly cloudy.9 mph93%29.93 "Hg8 mi
4:53 pm34 °FLight snow. Mostly cloudy.12 mph93%29.93 "Hg7 mi
4:00 pm34 °FLight snow. Low clouds.16 mph93%29.92 "Hg5 mi
3:00 pm34 °FLight snow. Low clouds.17 mph93%29.91 "Hg2 mi
2:00 pm34 °FLight snow. Low clouds.17 mph93%29.90 "Hg3 mi
1:00 pm34 °FLight snow. Low clouds.10 mph93%29.89 "Hg1 mi
12:00 pm32 °FLight snow. Low clouds.10 mph100%29.88 "Hg1 mi
11:34 am32 °FLight snow. Low clouds.12 mph100%29.88 "Hg1 mi
11:00 am30 °FLight snow. Low clouds.12 mph100%29.88 "Hg1 mi
10:43 am30 °FLight snow. Low clouds.12 mph100%29.88 "Hg1 mi
10:26 am30 °FLight snow. Low clouds.14 mph100%29.88 "Hg1 mi
10:00 am32 °FLight snow. Low clouds.13 mph93%29.87 "Hg3 mi
9:29 am30 °FLight snow. Low clouds.12 mph100%29.88 "Hg3 mi
9:00 am30 °FLight snow. Low clouds.10 mph100%29.88 "Hg2 mi
8:19 am28 °FLight snow. Low clouds.10 mph100%29.88 "Hg1 mi
8:00 am28 °FLight snow. Overcast.12 mph100%29.88 "Hg1 mi
7:39 am28 °FLight snow. Overcast.10 mph93%29.88 "Hg2 mi
7:27 am28 °FLight snow. Overcast.10 mph93%29.88 "Hg3 mi
7:00 am28 °FLight snow. Overcast.9 mph100%29.88 "Hg2 mi
6:43 am28 °FLight snow. Overcast.8 mph100%29.87 "Hg8 mi
6:24 am28 °FLight snow. Overcast.9 mph100%29.87 "Hg5 mi
6:00 am28 °FLight snow. Mostly cloudy.8 mph100%29.87 "Hg8 mi
5:42 am28 °FLight snow. Mostly cloudy.8 mph100%29.86 "Hg6 mi
5:38 am28 °FLight snow. Overcast.8 mph100%29.86 "Hg3 mi
4:54 am30 °FLight snow. Overcast.8 mph100%29.86 "Hg5 mi
4:31 am30 °FLight snow. Mostly cloudy.8 mph100%29.86 "Hg6 mi
4:16 am30 °FLight snow. Mostly cloudy.8 mph100%29.86 "Hg2 mi
4:10 am30 °FLight snow. Mostly cloudy.9 mph100%29.86 "Hg3 mi
3:39 am30 °FLight snow. Overcast.8 mph100%29.86 "Hg7 mi
3:20 am30 °FLight snow. Mostly cloudy.12 mph100%29.86 "Hg5 mi
2:42 am30 °FLight snow. Overcast.16 mph100%29.87 "Hg5 mi
2:25 am30 °FLight snow. Overcast.14 mph100%29.87 "Hg3 mi
2:02 am30 °FLight snow. Low clouds.15 mph100%29.87 "Hg2 mi
1:19 am32 °FLight snow. Mostly cloudy.14 mph100%29.87 "Hg2 mi
1:08 am32 °FLight snow. Mostly cloudy.14 mph100%29.87 "Hg8 mi
12:25 am32 °FLight snow. Mostly cloudy.16 mph93%29.87 "Hg9 mi
12:00 am34 °FOvercast.18 mph87%29.87 "Hg9 mi
11:39 pm
Wed, Apr 26
34 °FOvercast.16 mph87%29.87 "Hg9 mi
10:00 pm34 °FLight snow. Mostly cloudy.8 mph93%29.88 "Hg15 mi
Weather by CustomWeather, © 2017

See weather overviewHow to use our weather pages